Simultaneous Nadir Overpasses (SNOs) Predictions

Prediction of SNOs between GOES-16 and LANDSAT-8 Satellite Orbit:

Table of predicted SNOs for the next 14.0 days since TLE Epoch: 7/9/2022
Index Date Time (GOES-16) GOES-16 Lat,Lon LANDSAT-8 Lat,Lon Distance(km) Time Diff (sec)
1 07/09/2022 15:18:56 -0.00, -75.21 0.33, -76.88 189.49 80
2 07/11/2022 15:09:24 0.01, -75.22 -0.28, -73.92 147.99 80
3 07/12/2022 03:30:47 -0.02, -75.21 -0.84, -79.11 443.31 80
4 07/13/2022 14:57:12 0.02, -75.22 -0.89, -70.95 485.47 80
5 07/14/2022 03:18:36 -0.02, -75.21 -0.23, -76.14 105.77 80
6 07/16/2022 03:03:44 -0.01, -75.23 0.40, -73.18 232.34 80
7 07/16/2022 15:24:59 0.01, -75.24 0.66, -78.34 352.09 80
8 07/18/2022 15:15:27 -0.01, -75.27 0.03, -75.38 13.22 80
9 07/20/2022 15:00:35 -0.01, -75.30 -0.60, -72.42 327.56 80
10 07/21/2022 03:24:39 -0.01, -75.30 -0.51, -77.61 262.15 80
